Kiana, AK

11:37 AM AKDT on July 22, 2017 (GMT -0800)
Baker Memorial

Weather History for PAIK - January, 2012

Change the Weather History Date:

Thursday, January 5, 2012

  Actual Average (PASK) Record (PASK)
Temperature  
Mean Temperature -31 °F -  
Max Temperature -18 °F 0 °F 30 °F (2016)
Min Temperature -38 °F -11 °F -47 °F (1997)
Degree Days  
Heating Degree Days 96    
Moisture  
Dew Point -33 °F    
Average Humidity 72    
Maximum Humidity 75    
Minimum Humidity 69    
Precipitation  
Precipitation 0.00 in - - ()
Sea Level Pressure  
Sea Level Pressure 29.72 in    
Wind  
Wind Speed 4 mph (North)    
Max Wind Speed 12 mph    
Max Gust Speed -    
Visibility 9 miles    
Events Snow    
Averages and records for this station are not official NWS values.
T = Trace of Precipitation, MM = Missing Value Source: NWS Daily Summary

Daily Weather History Graph

Daily Weather History Graph

Search for Another Location

Airport or City:

Trip Planner

Search our weather history database for the weather conditions in past years. The results will help you decide how hot, cold, wet, or windy it might be!

Date:

Astronomy

Jan. 05, 2012 Rise Set
Actual Time 12:26 PM AKST 3:07 PM AKST
Civil Twilight 10:41 AM AKST 4:52 PM AKST
Nautical Twilight 9:22 AM AKST 6:12 PM AKST
Astronomical Twilight 8:15 AM AKST 7:19 PM AKST
Moon 12:10 PM AKST (1/5) 9:29 AM AKST (1/5)
Length of Visible Light 6h 11m
Length of Day
2h 40m
Waxing Gibbous, 88% of the Moon is Illuminated
Jan 5
Waxing Gibbous
Jan 8
Full
Jan 16
Last Quarter
Jan 22
New
Jan 30
First Quarter

Hourly Weather History & Observations

Time (AKST) Temp. Windchill Dew Point Humidity Pressure Visibility Wind Dir Wind Speed Gust Speed Precip Events Conditions
12:01 AM -29.0 °F - -36.0 °F 69% 29.74 in 9.0 mi Calm Calm - 0.00 in Snow Light Snow
1:01 AM -29.0 °F - -36.0 °F 69% 29.75 in 9.0 mi Calm Calm - 0.00 in Snow Light Snow
2:01 AM -29.9 °F -42.0 °F - N/A% 29.75 in 9.0 mi East 3.5 mph - 0.00 in Snow Light Snow
3:01 AM -33.0 °F -48.4 °F - N/A% 29.76 in 10.0 mi East 4.6 mph - 0.00 in   Overcast
4:01 AM -34.1 °F - - N/A% 29.77 in 10.0 mi Calm Calm - N/A   Partly Cloudy
5:01 AM -33.0 °F -52.7 °F - N/A% 29.77 in 10.0 mi East 6.9 mph - N/A   Clear
6:01 AM -35.0 °F -50.7 °F - N/A% 29.78 in 10.0 mi NNE 4.6 mph - 0.00 in   Clear
7:01 AM -34.1 °F -49.7 °F - N/A% 29.78 in 10.0 mi North 4.6 mph - N/A   Clear
8:01 AM -36.0 °F -52.0 °F - N/A% 29.77 in 9.0 mi NNE 4.6 mph - 0.00 in Snow Light Snow
9:01 AM -35.0 °F -56.8 °F - N/A% 29.78 in 10.0 mi NNW 8.1 mph - 0.00 in   Clear
9:22 AM -34.6 °F -59.2 °F - N/A% 29.63 in 10.0 mi NNW 10.4 mph - N/A   Scattered Clouds
9:31 AM -34.6 °F -60.5 °F - N/A% 29.63 in 10.0 mi NNW 11.5 mph - 0.00 in Snow Light Snow
10:01 AM -36.9 °F -63.4 °F - N/A% 29.78 in 9.0 mi NNW 11.5 mph - 0.00 in   Partly Cloudy
11:01 AM -34.1 °F -58.5 °F - N/A% 29.77 in 10.0 mi NNW 10.4 mph - N/A   Clear
12:01 PM -34.1 °F -52.0 °F - N/A% 29.78 in 10.0 mi NNE 5.8 mph - N/A   Overcast
1:01 PM -38.0 °F -56.7 °F - N/A% 29.76 in 10.0 mi NE 5.8 mph - N/A   Overcast
2:01 PM -36.0 °F -52.0 °F - N/A% 29.76 in 10.0 mi ENE 4.6 mph - N/A   Overcast
3:01 PM -35.0 °F -47.8 °F - N/A% 29.74 in 10.0 mi Variable 3.5 mph - N/A   Clear
4:01 PM -35.0 °F -50.7 °F - N/A% 29.73 in 10.0 mi NNW 4.6 mph - N/A   Mostly Cloudy
5:01 PM -35.0 °F -55.0 °F - N/A% 29.73 in 10.0 mi NNW 6.9 mph - N/A   Mostly Cloudy
6:01 PM -29.2 °F -49.7 °F - N/A% 29.57 in 4.0 mi NNW 8.1 mph - 0.00 in Snow Light Snow
6:41 PM -27.4 °F -41.9 °F -32.8 °F 75% 29.57 in 5.0 mi NNW 4.6 mph - 0.00 in Snow Light Snow
6:48 PM -25.6 °F - -32.8 °F 69% 29.56 in 4.0 mi Calm Calm - 0.00 in Snow Light Snow
7:01 PM -26.0 °F - -33.0 °F 69% 29.72 in 4.0 mi Calm Calm - 0.00 in Snow Light Snow
7:17 PM -27.4 °F - -32.8 °F 75% 29.57 in 8.0 mi Calm Calm - 0.00 in Snow Light Snow
8:01 PM -25.1 °F - -31.0 °F 74% 29.72 in 9.0 mi Calm Calm - 0.00 in Snow Light Snow
9:01 PM -25.1 °F -36.5 °F -31.0 °F 74% 29.73 in 8.0 mi NW 3.5 mph - 0.00 in Snow Light Snow
10:01 PM -24.0 °F - -29.9 °F 74% 29.74 in 9.0 mi Calm Calm - 0.00 in Snow Light Snow
11:01 PM -24.0 °F -37.9 °F -29.9 °F 74% 29.74 in 9.0 mi North 4.6 mph - 0.00 in Snow Light Snow